Location: ????????
(60.4333°N, 46.4710°E)
Time: 04:41:17
(UTC+00:00)

CENTAUR R/B - Pass Details

Date: 25 November 2020
Orbit: 750 x 1438 km, 63.4° (Epoch: 11 January)

Event Time Altitude Azimuth Distance (km) Brightness Sun altitude
Exits shadow 23:10:47 31° 107° (ESE) 2,178 4.4 -42.7°
Drops below altitude 10° 23:14:44 10° 110° (ESE) 3,455 5.6 -42.3°
Sets 23:17:47 0° 112° (ESE) 4,478 6.3 -42.0°
